DW4707 Campi Bisenzio - Firenze IT current weather conditions

sailwx.info

Wind from 045

Air temperature 25.0° C
Dewpoint 11.5° C

Last reported at 2016-Sep-25 16:51 UTC.
Time now 2016-Sep-25 17:30 UTC

Location: N 43°50' E 011°08'.
View on Google Maps.

See reports from other nearby stations

  
Tides and Currents Weather Stations Pressure Air Temp Water Temp Dewpoint Dewpoint Depression Visibility Wind Speed Wind Dir Waves Ship Positions
date/time (UTC)wind fromknots sea level pressurealtimeterstation pressurevisibilityair tempwater tempwave heightnotes
2016-Sep-25 16:51 045 25.0
2016-Sep-25 16:41 022 25.0
2016-Sep-25 16:36 25.6
2016-Sep-25 16:31 341 25.6
2016-Sep-25 16:26 037 25.6
2016-Sep-25 16:21 022 25.6
2016-Sep-25 16:11 354 25.6
2016-Sep-25 16:06 022 0 gusting 0 26.1
2016-Sep-25 15:56 018 26.1
2016-Sep-25 15:47 023 0 gusting 0 26.1
2016-Sep-25 15:31 045 26.1
2016-Sep-25 15:26 015 26.7
2016-Sep-25 15:21 045 1 gusting 1 26.7
2016-Sep-25 15:16 022 26.7
2016-Sep-25 14:56 149 26.7
2016-Sep-25 14:36 315 26.7
2016-Sep-25 14:26 148 26.7
2016-Sep-25 14:21 045 26.7
2016-Sep-25 14:16 022 0 gusting 0 26.7
2016-Sep-25 14:11 127 26.7
2016-Sep-25 14:01 024 26.7
2016-Sep-25 13:56 010 26.7
2016-Sep-25 13:51 130 26.7
2016-Sep-25 13:46 022 0 gusting 0 26.7
2016-Sep-25 13:41 209 26.7
2016-Sep-25 13:36 022 26.7
2016-Sep-25 13:31 270 26.7
2016-Sep-25 13:26 357 26.1
2016-Sep-25 13:21 298 26.1
2016-Sep-25 13:06 158 26.7
2016-Sep-25 13:01 068 26.7
2016-Sep-25 12:56 098 26.1
2016-Sep-25 12:51 045 26.1
2016-Sep-25 12:46 022 26.1
2016-Sep-25 12:31 045 26.1
2016-Sep-25 12:26 140 26.1
2016-Sep-25 12:16 088 0 26.7
2016-Sep-25 12:11 26.7
2016-Sep-25 12:06 26.7
2016-Sep-25 12:01 068 26.7
2016-Sep-25 11:56 179 26.7
2016-Sep-25 11:51 202 0 gusting 2 26.7
2016-Sep-25 11:46 045 0 gusting 2 27.2
2016-Sep-25 11:41 068 26.7
2016-Sep-25 11:36 202 26.1
2016-Sep-25 11:31 021 26.7
2016-Sep-25 11:26 031 27.2
2016-Sep-25 11:16 27.2
2016-Sep-25 11:06 248 26.7
2016-Sep-25 11:01 338 26.7
2016-Sep-25 10:56 055 26.7
2016-Sep-25 10:51 135 26.7
2016-Sep-25 10:46 180 26.7
2016-Sep-25 10:41 116 26.7
2016-Sep-25 10:36 022 26.1
2016-Sep-25 10:31 068 26.1
2016-Sep-25 10:21 068 25.6
2016-Sep-25 10:16 070 25.6
2016-Sep-25 10:06 225 25.6
2016-Sep-25 10:01 068 25.6
2016-Sep-25 09:56 086 25.0
2016-Sep-25 09:31 225 23.9
2016-Sep-25 09:16 135 23.9
2016-Sep-25 09:11 056 23.9
2016-Sep-25 09:06 050 23.3
2016-Sep-25 09:01 045 23.9
2016-Sep-25 08:56 173 23.3
2016-Sep-25 08:51 338 23.3
2016-Sep-25 08:46 202 22.8
2016-Sep-25 08:41 308 22.2
2016-Sep-25 08:36 022 21.7
2016-Sep-25 08:31 066 21.7
2016-Sep-25 08:21 338 22.2
2016-Sep-25 08:16 183 21.7
2016-Sep-25 08:06 045 21.1
2016-Sep-25 08:01 060 21.1
2016-Sep-25 07:56 096 20.0
2016-Sep-25 07:51 158 20.0
2016-Sep-25 07:46 022 20.6
2016-Sep-25 07:26 174 19.4
2016-Sep-25 07:16 180 18.3
2016-Sep-25 07:11 201 18.3
2016-Sep-25 07:01 168 18.3
2016-Sep-25 06:56 202 17.8
2016-Sep-25 06:51 022 17.8
2016-Sep-25 06:46 074 17.8
2016-Sep-25 06:41 180 17.2
2016-Sep-25 06:36 225 16.7
2016-Sep-25 06:31 191 16.7
2016-Sep-25 06:21 158 16.7
2016-Sep-25 06:16 157 16.1
2016-Sep-25 06:11 080 15.6
2016-Sep-25 06:06 214 15.0
2016-Sep-25 06:01 225 14.4
2016-Sep-25 05:56 112 13.9
2016-Sep-25 05:51 180 13.3
2016-Sep-25 05:46 098 13.3
2016-Sep-25 05:41 181 13.3
2016-Sep-25 05:36 13.3
2016-Sep-25 05:26 135 13.3
2016-Sep-25 05:06 022 13.3
2016-Sep-25 05:01 022 13.3
2016-Sep-25 04:56 025 13.3
2016-Sep-25 04:51 338 13.3
2016-Sep-25 04:46 158 13.3
2016-Sep-25 04:41 180 13.3
2016-Sep-25 04:36 135 13.3
2016-Sep-25 04:31 135 13.3
2016-Sep-25 04:26 058 13.3
2016-Sep-25 04:12 180 13.9
2016-Sep-25 04:01 180 13.9
2016-Sep-25 03:51 202 13.3
2016-Sep-25 03:46 120 13.3
2016-Sep-25 03:41 081 13.9
2016-Sep-25 03:36 202 13.9
2016-Sep-25 03:31 202 13.9
2016-Sep-25 03:21 022 13.9
2016-Sep-25 03:11 202 13.9
2016-Sep-25 03:06 180 13.9
2016-Sep-25 03:01 180 14.4
2016-Sep-25 02:51 202 13.9
2016-Sep-25 02:46 076 14.4
2016-Sep-25 02:36 135 14.4
2016-Sep-25 02:21 14.4
2016-Sep-25 02:17 292 14.4
2016-Sep-25 02:12 197 15.6
2016-Sep-25 00:11 199 15.6
2016-Sep-25 00:06 180 15.6
2016-Sep-25 00:01 064 15.6
2016-Sep-24 23:56 001 15.6
2016-Sep-24 23:51 202 16.1
2016-Sep-24 23:36 135 16.1
2016-Sep-24 23:31 218 16.7
2016-Sep-24 23:11 171 16.7
2016-Sep-24 23:06 135 16.7
2016-Sep-24 22:56 220 17.2
2016-Sep-24 22:51 180 17.2
2016-Sep-24 22:41 112 17.2
2016-Sep-24 22:31 116 17.2
2016-Sep-24 22:21 180 17.8
2016-Sep-24 22:16 180 17.8
2016-Sep-24 22:11 180 17.8
2016-Sep-24 22:06 180 17.8
2016-Sep-24 22:01 225 17.8
2016-Sep-24 21:51 022 18.3
2016-Sep-24 21:46 018 18.3
2016-Sep-24 21:41 180 17.8
2016-Sep-24 21:31 068 18.3
2016-Sep-24 21:21 158 18.3
2016-Sep-24 21:16 172 18.3
2016-Sep-24 21:06 180 18.9
2016-Sep-24 20:56 315 19.4
2016-Sep-24 20:46 017 20.0
2016-Sep-24 20:41 026 20.0
2016-Sep-24 20:36 068 20.0
2016-Sep-24 20:31 022 20.0
2016-Sep-24 20:26 20.0
2016-Sep-24 20:21 022 20.0
2016-Sep-24 20:16 049 20.0
2016-Sep-24 20:11 002 20.0
2016-Sep-24 19:47 203 20.6
2016-Sep-24 19:41 180 20.6
2016-Sep-24 19:36 21.1
2016-Sep-24 19:31 338 21.1
2016-Sep-24 19:26 022 21.1
2016-Sep-24 19:16 007 21.1
2016-Sep-24 19:11 023 21.1
2016-Sep-24 19:01 21.7
2016-Sep-24 18:56 21.7
2016-Sep-24 18:51 045 21.7
2016-Sep-24 18:41 112 21.7
2016-Sep-24 18:31 037 21.7
2016-Sep-24 18:26 045 0 gusting 0 21.7
2016-Sep-24 18:21 21.7
2016-Sep-24 18:16 006 0 gusting 0 22.2
2016-Sep-24 18:11 090 22.2
2016-Sep-24 18:06 045 22.2
2016-Sep-24 18:01 045 22.8
2016-Sep-24 17:51 338 22.8
2016-Sep-24 17:46 022 1 gusting 1 22.8
2016-Sep-24 17:41 158 22.8
2016-Sep-24 17:36 001 22.8
2016-Sep-24 17:26 045 23.3
2016-Sep-24 17:21 045 23.3
2016-Sep-24 17:06 022 23.9
2016-Sep-24 17:01 034 23.9
2016-Sep-24 16:56 112 24.4
2016-Sep-24 16:46 036 24.4
2016-Sep-24 16:31 045 25.0
2016-Sep-24 16:21 018 25.0
2016-Sep-24 16:06 338 25.0
2016-Sep-24 16:01 001 1 gusting 1 25.6
2016-Sep-24 15:56 25.6
2016-Sep-24 15:51 25.6
2016-Sep-24 15:46 25.6
2016-Sep-24 15:41 25.6
2016-Sep-24 15:31 045 25.6
2016-Sep-24 15:26 045 25.6
2016-Sep-24 15:21 045 25.6
2016-Sep-24 15:16 26.1
2016-Sep-24 15:11 26.1
2016-Sep-24 15:06 006 26.1
2016-Sep-24 15:01 022 26.1
2016-Sep-24 14:51 022 26.1
2016-Sep-24 14:46 022 0 gusting 0 26.1
2016-Sep-24 14:36 018 1 gusting 1 26.1
2016-Sep-24 14:16 068 26.1
2016-Sep-24 14:11 26.1
2016-Sep-24 14:06 001 26.7
2016-Sep-24 13:56 001 26.7
2016-Sep-24 13:51 26.7
2016-Sep-24 13:46 26.7
2016-Sep-24 13:36 26.7
2016-Sep-24 13:31 26.7
2016-Sep-24 13:26 022 0 gusting 0 26.7
2016-Sep-24 13:21 271 26.7
2016-Sep-24 13:11 045 26.7
2016-Sep-24 13:06 057 27.2
2016-Sep-24 12:51 058 26.7
2016-Sep-24 12:46 112 26.7
2016-Sep-24 12:36 045 26.7
2016-Sep-24 12:31 045 26.7
2016-Sep-24 12:26 022 27.2
2016-Sep-24 12:22 27.2
2016-Sep-24 12:16 045 27.2
2016-Sep-24 12:06 180 0 gusting 1 27.2
2016-Sep-24 11:46 022 27.2
2016-Sep-24 11:41 338 27.2
2016-Sep-24 11:36 027 27.8
2016-Sep-24 11:32 27.8
2016-Sep-24 11:26 186 27.2
2016-Sep-24 11:21 231 27.2
2016-Sep-24 11:16 158 26.7
2016-Sep-24 11:11 045 27.2
2016-Sep-24 10:46 180 1 gusting 1 26.7
2016-Sep-24 10:41 045 26.7
2016-Sep-24 10:16 046 25.0
2016-Sep-24 10:06 046 25.0
2016-Sep-24 09:51 046 25.0
2016-Sep-24 09:46 046 25.0
2016-Sep-24 09:41 046 25.0
2016-Sep-24 09:36 046 25.0
2016-Sep-24 09:31 045 25.0
2016-Sep-24 09:26 045 25.0
2016-Sep-24 09:21 045 25.0
2016-Sep-24 09:16 045 25.0
2016-Sep-24 09:11 202 25.0
2016-Sep-24 09:06 027 24.4
2016-Sep-24 09:01 112 24.4
2016-Sep-24 08:51 222 24.4
2016-Sep-24 08:36 101 24.4
2016-Sep-24 08:31 021 23.9
2016-Sep-24 08:16 315 22.8
2016-Sep-24 08:11 265 22.8
2016-Sep-24 08:06 158 22.8
2016-Sep-24 08:01 045 22.2
2016-Sep-24 07:56 191 22.2
2016-Sep-24 07:51 001 22.2
2016-Sep-24 07:46 202 22.2
2016-Sep-24 07:41 185 21.7
2016-Sep-24 07:31 023 16.7
2016-Sep-24 07:16 022 16.7
2016-Sep-24 07:11 075 16.7
2016-Sep-24 07:06 180 16.7
2016-Sep-24 07:01 181 16.7
2016-Sep-24 06:51 039 16.7
2016-Sep-24 06:46 315 16.7
2016-Sep-24 06:41 220 16.7
2016-Sep-24 06:31 168 16.7
2016-Sep-24 06:26 135 16.7
2016-Sep-24 06:21 138 16.7
2016-Sep-24 06:16 180 16.7
2016-Sep-24 06:11 157 16.7
2016-Sep-24 06:06 135 16.7
2016-Sep-24 06:01 022 16.7
2016-Sep-24 05:56 112 15.6
2016-Sep-24 05:51 180 15.6
2016-Sep-24 05:46 180 15.6
2016-Sep-24 05:31 135 15.6
2016-Sep-24 05:22 135 15.6
2016-Sep-24 05:16 135 15.6
2016-Sep-24 05:12 158 16.1
2016-Sep-24 05:07 248 16.1
2016-Sep-24 05:01 248 16.1
2016-Sep-24 04:56 213 16.1
2016-Sep-24 04:41 204 16.7
2016-Sep-24 04:27 202 16.7
2016-Sep-24 04:21 202 16.7
2016-Sep-24 04:16 202 16.7
2016-Sep-24 04:06 202 16.7
2016-Sep-24 03:51 109 16.7
2016-Sep-24 03:46 087 16.7
2016-Sep-24 03:41 045 16.7
2016-Sep-24 03:36 158 16.7
2016-Sep-24 03:31 158 16.7
2016-Sep-24 03:21 180 16.7
2016-Sep-24 03:16 180 16.7
2016-Sep-24 03:11 180 16.7
2016-Sep-24 03:06 180 16.7
2016-Sep-24 03:01 180 16.7
2016-Sep-24 02:51 158 16.7
2016-Sep-24 02:41 045 17.2
2016-Sep-24 02:36 180 17.2
2016-Sep-24 02:21 180 17.2
2016-Sep-24 02:16 136 17.2
2016-Sep-24 02:11 136 17.2
2016-Sep-24 02:06 135 17.2
2016-Sep-24 02:02 135 17.2
2016-Sep-24 01:51 135 17.2
2016-Sep-24 01:46 135 17.2
2016-Sep-24 01:41 123 17.2
2016-Sep-24 01:36 135 17.2
2016-Sep-24 01:31 135 17.2
2016-Sep-24 01:26 135 17.2
2016-Sep-24 01:21 135 17.2
2016-Sep-24 01:16 136 17.2
2016-Sep-24 01:11 158 17.2
2016-Sep-24 01:01 112 17.2
2016-Sep-24 00:56 112 17.2
2016-Sep-24 00:52 112 17.2
2016-Sep-24 00:46 158 17.2
2016-Sep-24 00:32 226 18.3
2016-Sep-24 00:26 226 18.3
2016-Sep-24 00:21 226 18.3
2016-Sep-24 00:16 226 18.3
2016-Sep-24 00:11 225 18.3
2016-Sep-24 00:06 225 18.3
2016-Sep-24 00:02 204 18.3
2016-Sep-23 23:46 204 18.3
2016-Sep-23 23:41 204 18.3
2016-Sep-23 23:36 202 18.3
2016-Sep-23 23:31 202 18.3
2016-Sep-23 23:26 202 18.3
2016-Sep-23 23:16 204 18.9
2016-Sep-23 23:11 204 18.9
2016-Sep-23 23:06 204 18.9
2016-Sep-23 22:46 204 18.9
2016-Sep-23 22:41 204 18.9
2016-Sep-23 22:36 204 18.9
2016-Sep-23 22:31 204 18.9
2016-Sep-23 22:21 204 18.9
2016-Sep-23 22:16 204 18.9
2016-Sep-23 22:11 204 18.9
2016-Sep-23 21:56 202 18.9
2016-Sep-23 21:46 202 18.9
2016-Sep-23 21:41 202 18.9
2016-Sep-23 21:36 225 19.4
2016-Sep-23 21:26 225 19.4
2016-Sep-23 21:21 248 19.4
2016-Sep-23 21:17 248 20.0
2016-Sep-23 21:11 202 20.0
2016-Sep-23 21:01 068 20.0
2016-Sep-23 20:56 183 20.0
2016-Sep-23 20:46 202 20.0
2016-Sep-23 20:42 202 20.0
2016-Sep-23 20:31 202 20.0
2016-Sep-23 20:21 20.0
2016-Sep-23 20:16 021 20.0
2016-Sep-23 20:12 20.0
2016-Sep-23 20:07 20.6
2016-Sep-23 20:01 20.6
2016-Sep-23 19:56 20.6
2016-Sep-23 19:41 20.6
2016-Sep-23 19:31 045 20.6
2016-Sep-23 19:26 045 20.6
2016-Sep-23 19:21 068 20.6
2016-Sep-23 19:16 022 20.6
2016-Sep-23 19:11 045 21.1
2016-Sep-23 19:06 045 21.1
2016-Sep-23 19:02 045 21.1
2016-Sep-23 18:46 068 21.1
2016-Sep-23 18:41 068 21.1
2016-Sep-23 18:36 112 21.1
2016-Sep-23 18:31 112 21.1
2016-Sep-23 18:21 115 21.1
2016-Sep-23 18:16 180 21.1
2016-Sep-23 18:12 074 21.7
2016-Sep-23 18:01 045 22.2
2016-Sep-23 17:57 022 22.2
2016-Sep-23 17:52 011 22.2
2016-Sep-23 17:46 022 22.2
2016-Sep-23 17:41 149 22.2
2016-Sep-23 17:36 022 22.2
2016-Sep-23 17:32 022 22.2
2016-Sep-23 17:26 045 22.8
2016-Sep-23 17:22 078 22.8
2016-Sep-23 17:16 090 22.8
2016-Sep-23 17:11 090 23.3
2016-Sep-23 17:06 090 23.3
2016-Sep-23 17:01 090 23.3